Location: Baix
(44.7118°N, 4.7648°E)
Time: 01:33:32
(UTC+00:00)

Vanguard 3 - Pass Details

Date: 28 November 2020
Orbit: 508 x 3262 km, 33.3° (Epoch: 19 January)

Event Time Altitude Azimuth Distance (km) Brightness Sun altitude
Rises 22:13:46 0° 242° (WSW) 2,647 - -62.1°
Reaches altitude 10° 22:16:07 10° 224° (SW) 1,868 - -62.3°
Maximum altitude 22:19:18 21° 173° (S) 1,485 - -62.7°
Drops below altitude 10° 22:23:26 10° 125° (SE) 2,504 - -63.1°
Sets 22:27:13 0° 111° (ESE) 3,885 - -63.5°
